Voltar ao catálogo

STARLINK-31088

AtivoComunicaçõesVLEO
NORAD 58604·PAYLOAD·🇺🇸 United States

Lançado Dec 19, 2023 de Cape Canaveral Space Force Station

Loading…

Próximas Passagens (próximas 24 horas)

TLE

AtualizadoSource: CelesTrak SupGP

Época: Sep 14, 2026, 20:55 UTC

1 58604C 23200R   26257.87201389 -.00008353  00000+0 -30250-3 0  2570
2 58604  43.0004 180.2993 0001503 263.2094 160.4603 15.27588205    17

Acompanhe STARLINK-31088 em tempo real com AllMySat

Download on the App Store